User: anonymous   Login
Location: Unspecified
(0.0000°N, 0.0000°E)
Time: 03:36:51
(UTC+01:00)
Language:

PSLV R/B - Orbit

View from above orbital plane
View from above orbital plane
View from above satellite
View from above satellite

Ground track
Ground track

The orbit data is extracted from the following two-line orbital elements,

1 29713U 07001E   14353.88910948  .00003614  00000-0  44476-3 0  5126
2 29713 097.6595 340.4401 0025430 201.8407 158.1725 14.83343094429011
Epoch (UTC): 19 December 2014 21:20:19
Eccentricity: 0.0025430
inclination: 97.6595°
perigee height: 601 km
apogee height: 636 km
right ascension of ascending node: 340.4401°
argument of perigee: 201.8407°
revolutions per day: 14.83343094
mean anomaly at epoch: 158.1725°
orbit number at epoch: 42901

The dashed part of the orbit path shows where the satellite is in the earth's shadow,  

DLR